sat.trackr.live / text

‹ back to catalog

QIANFAN-133

NORAD 69079 · 2026-104G

PAYLOAD ACTIVE UNKNOWN

§ Identity

Operator
Country
PRC
Launch date
2026-05-12
Launch site
TAISC
Launch vehicle
Mass (kg)
RCS (m²)

External: N2YO · Heavens-Above · Gunter

§ Orbital elements

Epoch: 2026-05-25T04:43:43.766112Z

Period
101.48 min
Inclination
88.9868°
Eccentricity
0.0003108
Mean motion
14.19026138 rev/d
Perigee alt
826.4 km
Apogee alt
830.9 km
Semi-major
7,206.8 km
B*
3.1424e-5
RAAN
344.2485°
Arg perigee
172.5483°
Mean anomaly
187.5753°
Rev number
182

§ Raw data

QIANFAN-1331 69079U 26104G   26145.19703433  .00000080  00000+0  31424-4 0  99972 69079  88.9868 344.2485 0003108 172.5483 187.5753 14.19026138  1824

JSON: /api/v1/satellites/69079 · /tle

For live sub-satellite position, see the globe view (requires WebGL).

§ Visibility from observer

Set your observer location to see the next 7 days of passes ≥ 10°. The values pass through the URL so the page stays shareable.

No JS? Fill the form by hand. The geolocation button needs JavaScript.